User: anonymous
Location: Brno
(49.2000°N, 16.6330°E)
Time: 05:21:31
(UTC+02:00)
Language:

Cosmos 1459 Rocket - Orbit

View from above orbital plane
View from above orbital plane
View from above satellite
View from above satellite

Ground track
Ground track

The orbit data is extracted from the following two-line orbital elements,

1 14059U 83042B   14211.13349056  .00000035  00000-0  19407-4 0  3656
2 14059 082.9734 123.4792 0042111 346.0539 125.6330 13.78453812570678
Epoch (UTC): 30 July 2014 03:12:13
Eccentricity: 0.0042111
inclination: 82.9734°
perigee height: 938 km
apogee height: 1000 km
right ascension of ascending node: 123.4792°
argument of perigee: 346.0539°
revolutions per day: 13.78453812
mean anomaly at epoch: 125.6330°
orbit number at epoch: 57067

The dashed part of the orbit path shows where the satellite is in the earth's shadow,  

DLR